This is the latest recevied weather packets stored in our database for station/object WX9WTF. If no packets are shown the sender has not sent any weather packets the latest 1 day(s).
| Time | Temp. | Humidity | Pressure | Rain* | Wind** | Luminosity | Snow |
|---|---|---|---|---|---|---|---|
| 1778030448 | 8.33° C | 97% | 1012.8 hPa | 0 mm | 0 m/s | 1 W/m² | - |
| 1778030146 | 8.33° C | 97% | 1013 hPa | 0 mm | 0 m/s | 2 W/m² | - |
| 1778029842 | 8.33° C | 97% | 1012.8 hPa | 0 mm | 0 m/s | 4 W/m² | - |
| 1778029542 | 8.89° C | 97% | 1012.8 hPa | 0 mm | 0 m/s | 6 W/m² | - |
| 1778029238 | 8.89° C | 97% | 1012.7 hPa | 0 mm | 0 m/s | 7 W/m² | - |
| 1778028935 | 8.89° C | 97% | 1012.8 hPa | 0 mm | 0 m/s | 9 W/m² | - |
| 1778028631 | 8.89° C | 96% | 1012.7 hPa | 0 mm | 0 m/s | 14 W/m² | - |
| 1778028328 | 8.89° C | 96% | 1012.7 hPa | 0 mm | 0 m/s | 18 W/m² | - |
| 1778028025 | 8.89° C | 96% | 1012.7 hPa | 0 mm | 0 m/s | 19 W/m² | - |
| 1778027721 | 8.89° C | 96% | 1012.9 hPa | 0 mm | 0.45 m/s, 186° | 18 W/m² | - |
| 1778027417 | 8.89° C | 96% | 1012.9 hPa | 0 mm | 0 m/s | 25 W/m² | - |
| 1778027114 | 8.89° C | 96% | 1012.6 hPa | 0 mm | 0 m/s | 35 W/m² | - |
| 1778026809 | 8.89° C | 95% | 1012.4 hPa | 0 mm | 0 m/s | 34 W/m² | - |
| 1778026506 | 8.89° C | 95% | 1012.4 hPa | 0 mm | 0 m/s | 34 W/m² | - |
| 1778026203 | 9.44° C | 95% | 1012.3 hPa | 0 mm | 0.45 m/s, 246° | 36 W/m² | - |
| 1778025901 | 9.44° C | 95% | 1012.5 hPa | 0 mm | 0 m/s | 51 W/m² | - |
| 1778025597 | 9.44° C | 95% | 1012.3 hPa | 0 mm | 0 m/s | 87 W/m² | - |
| 1778025296 | 8.89° C | 95% | 1012.3 hPa | 0 mm | 0 m/s | 63 W/m² | - |
| 1778024992 | 9.44° C | 95% | 1012.1 hPa | 0 mm | 0.45 m/s, 101° | 88 W/m² | - |
| 1778024690 | 9.44° C | 95% | 1012.3 hPa | 0 mm | 0 m/s | 86 W/m² | - |
| 1778024386 | 9.44° C | 96% | 1012.3 hPa | 0 mm | 0 m/s | 98 W/m² | - |
| 1778024084 | 9.44° C | 95% | 1012.4 hPa | 0 mm | 0 m/s | 78 W/m² | - |
| 1778023781 | 9.44° C | 95% | 1012.3 hPa | 0 mm | 0.45 m/s, 58° | 53 W/m² | - |
| 1778023479 | 9.44° C | 95% | 1012.5 hPa | 0 mm | 0 m/s | 54 W/m² | - |
| 1778023176 | 9.44° C | 95% | 1012.8 hPa | 0 mm | 0 m/s | 63 W/m² | - |
* Rain latest hour (hover to see other rain measurements)
** Current wind speed in m/s (hover to see current wind gust speed)